Time,TemperatureF,DewpointF,PressureIn,WindDirection,WindDirectionDegrees,WindSpeedMPH,WindSpeedGustMPH,Humidity,HourlyPrecipIn,Conditions,Clouds,dailyrainin,SoftwareType,DateUTC
2016-07-25 00:11:00,67.3,42.8,30.10,West,270,9.9,-999.0,41,-99.99,,,0.00,Acu-Link.com,2016-07-25 06:11:00,
2016-07-25 00:26:00,66.9,42.4,30.11,West,270,4.7,-999.0,41,-99.99,,,0.00,Acu-Link.com,2016-07-25 06:26:00,
2016-07-25 00:41:00,66.7,42.2,30.11,West,270,2.2,-999.0,41,-99.99,,,0.00,Acu-Link.com,2016-07-25 06:41:00,
2016-07-25 00:56:00,66.2,42.4,30.12,West,270,7.8,-999.0,42,-99.99,,,0.00,Acu-Link.com,2016-07-25 06:56:00,
2016-07-25 01:11:00,65.3,44.5,30.13,NW,315,3.7,-999.0,47,-99.99,,,0.00,Acu-Link.com,2016-07-25 07:11:00,
2016-07-25 01:27:00,64.9,47.9,30.14,SSW,202,7.3,-999.0,54,-99.99,,,0.00,Acu-Link.com,2016-07-25 07:27:00,
2016-07-25 01:42:00,64.4,48.8,30.15,WSW,247,8.9,-999.0,57,-99.99,,,0.00,Acu-Link.com,2016-07-25 07:42:00,
2016-07-25 01:57:00,63.3,50.1,30.15,NNW,337,9.9,-999.0,62,-99.99,,,0.00,Acu-Link.com,2016-07-25 07:57:00,
2016-07-25 02:12:00,62.4,52.1,30.15,West,270,8.3,-999.0,69,-99.99,,,0.00,Acu-Link.com,2016-07-25 08:12:00,
2016-07-25 02:27:00,61.0,52.3,30.16,WNW,292,5.3,-999.0,73,-99.99,,,0.00,Acu-Link.com,2016-07-25 08:27:00,
2016-07-25 02:42:00,59.5,51.9,30.17,West,270,3.7,-999.0,76,-99.99,,,0.00,Acu-Link.com,2016-07-25 08:42:00,
2016-07-25 02:58:00,58.8,52.0,30.18,North,0,7.3,-999.0,78,-99.99,,,0.00,Acu-Link.com,2016-07-25 08:58:00,
2016-07-25 03:13:00,58.5,51.7,30.19,NW,315,3.7,-999.0,78,-99.99,,,0.00,Acu-Link.com,2016-07-25 09:13:00,
2016-07-25 03:28:00,58.3,51.5,30.20,NNW,337,3.2,-999.0,78,-99.99,,,0.00,Acu-Link.com,2016-07-25 09:28:00,
2016-07-25 03:43:00,57.7,51.6,30.21,WSW,247,4.2,-999.0,80,-99.99,,,0.00,Acu-Link.com,2016-07-25 09:43:00,
2016-07-25 03:58:00,56.8,51.0,30.21,WNW,292,2.7,-999.0,81,-99.99,,,0.00,Acu-Link.com,2016-07-25 09:58:00,
2016-07-25 04:14:00,55.9,50.8,30.22,SW,225,1.7,-999.0,83,-99.99,,,0.00,Acu-Link.com,2016-07-25 10:14:00,
2016-07-25 04:29:00,55.4,51.0,30.22,WSW,247,1.7,-999.0,85,-99.99,,,0.00,Acu-Link.com,2016-07-25 10:29:00,
2016-07-25 04:44:00,54.9,50.5,30.23,SE,135,0.0,-999.0,85,-99.99,,,0.00,Acu-Link.com,2016-07-25 10:44:00,
2016-07-25 04:59:00,54.7,50.6,30.23,WNW,292,3.2,-999.0,86,-99.99,,,0.00,Acu-Link.com,2016-07-25 10:59:00,
2016-07-25 05:14:00,55.2,50.8,30.23,WNW,292,2.7,-999.0,85,-99.99,,,0.00,Acu-Link.com,2016-07-25 11:14:00,
2016-07-25 05:29:00,55.4,50.6,30.24,West,270,2.2,-999.0,84,-99.99,,,0.00,Acu-Link.com,2016-07-25 11:29:00,
2016-07-25 05:45:00,55.8,50.7,30.24,NW,315,2.2,-999.0,83,-99.99,,,0.00,Acu-Link.com,2016-07-25 11:45:00,
2016-07-25 06:00:00,55.6,50.2,30.24,WNW,292,2.7,-999.0,82,-99.99,,,0.00,Acu-Link.com,2016-07-25 12:00:00,
2016-07-25 06:15:00,55.6,50.2,30.25,NW,315,1.7,-999.0,82,-99.99,,,0.00,Acu-Link.com,2016-07-25 12:15:00,
2016-07-25 06:30:00,55.6,50.2,30.26,WNW,292,1.1,-999.0,82,-99.99,,,0.00,Acu-Link.com,2016-07-25 12:30:00,
2016-07-25 06:45:00,54.9,49.5,30.27,ESE,112,0.0,-999.0,82,-99.99,,,0.00,Acu-Link.com,2016-07-25 12:45:00,
2016-07-25 07:00:00,54.1,49.4,30.26,ESE,112,0.0,-999.0,84,-99.99,,,0.00,Acu-Link.com,2016-07-25 13:00:00,
2016-07-25 07:15:00,53.6,49.8,30.27,ESE,112,0.0,-999.0,87,-99.99,,,0.00,Acu-Link.com,2016-07-25 13:15:00,
2016-07-25 07:31:00,54.3,50.5,30.28,ESE,112,2.2,-999.0,87,-99.99,,,0.00,Acu-Link.com,2016-07-25 13:31:00,
2016-07-25 07:46:00,55.9,50.8,30.26,ESE,112,1.7,-999.0,83,-99.99,,,0.00,Acu-Link.com,2016-07-25 13:46:00,
2016-07-25 08:01:00,61.7,52.2,30.28,North,0,1.7,-999.0,71,-99.99,,,0.00,Acu-Link.com,2016-07-25 14:01:00,
2016-07-25 08:16:00,65.3,51.9,30.26,West,270,2.2,-999.0,62,-99.99,,,0.00,Acu-Link.com,2016-07-25 14:16:00,
2016-07-25 08:31:00,65.8,52.8,30.27,SSW,202,0.0,-999.0,63,-99.99,,,0.00,Acu-Link.com,2016-07-25 14:31:00,
2016-07-25 08:46:00,65.5,54.2,30.27,ESE,112,1.1,-999.0,67,-99.99,,,0.00,Acu-Link.com,2016-07-25 14:46:00,
2016-07-25 09:02:00,68.5,54.5,30.27,ESE,112,2.2,-999.0,61,-99.99,,,0.00,Acu-Link.com,2016-07-25 15:02:00,
2016-07-25 09:17:00,71.6,53.6,30.27,ESE,112,2.2,-999.0,53,-99.99,,,0.00,Acu-Link.com,2016-07-25 15:17:00,
2016-07-25 09:32:00,72.5,53.9,30.26,South,180,2.7,-999.0,52,-99.99,,,0.00,Acu-Link.com,2016-07-25 15:32:00,
2016-07-25 09:47:00,72.1,51.3,30.26,ESE,112,3.2,-999.0,48,-99.99,,,0.00,Acu-Link.com,2016-07-25 15:47:00,
2016-07-25 10:02:00,68.7,51.9,30.27,ESE,112,5.8,-999.0,55,-99.99,,,0.00,Acu-Link.com,2016-07-25 16:02:00,
2016-07-25 10:17:00,69.1,52.7,30.26,East,90,5.3,-999.0,56,-99.99,,,0.00,Acu-Link.com,2016-07-25 16:17:00,
2016-07-25 10:32:00,69.3,51.4,30.27,SSE,157,4.7,-999.0,53,-99.99,,,0.00,Acu-Link.com,2016-07-25 16:32:00,
2016-07-25 10:47:00,70.3,51.3,30.25,SE,135,4.7,-999.0,51,-99.99,,,0.00,Acu-Link.com,2016-07-25 16:47:00,